Weather History for KCRG - August, 2013

Change the Weather History Date:

Monday, August 19, 2013

  Actual Average Record
Temperature  
Mean Temperature 84 °F -  
Max Temperature 90 °F 87 °F 97 °F (2010)
Min Temperature 78 °F 71 °F 71 °F (1996)
Cooling Degree Days 19    
Growing Degree Days 34 (Base 50)    
Moisture  
Dew Point 75 °F    
Average Humidity 76    
Maximum Humidity 88    
Minimum Humidity 57    
Precipitation  
Precipitation 0.44 in - - ()
Sea Level Pressure  
Sea Level Pressure 30.06 in    
Wind  
Wind Speed 5 mph (SE)    
Max Wind Speed 18 mph    
Max Gust Speed 24 mph    
Visibility 10 miles    
Events Rain    
Averages and records for this station are not official NWS values.
T = Trace of Precipitation, MM = Missing Value Source: NWS Daily Summary

Daily Weather History Graph

Daily Weather History Graph

Search for Another Location

Airport or City:

Trip Planner

Search our weather history database for the weather conditions in past years. The results will help you decide how hot, cold, wet, or windy it might be!

Date:

Astronomy

Aug. 19, 2013 Rise Set
Actual Time 6:55 AM EDT 8:03 PM EDT
Civil Twilight 6:30 AM EDT 8:28 PM EDT
Nautical Twilight 6:00 AM EDT 8:57 PM EDT
Astronomical Twilight 5:30 AM EDT 9:28 PM EDT
Moon 6:53 PM EDT (8/19) 5:15 AM EDT (8/19)
Length of Visible Light 13h 57m
Length of Day
13h 07m
Waxing Gibbous, 97% of the Moon is Illuminated
Aug 19
Waxing Gibbous
Aug 20
Full
Aug 28
Last Quarter
Sep 5
New
Sep 12
First Quarter

Hourly Weather History & Observations

Time (EDT) Temp. Heat Index Dew Point Humidity Pressure Visibility Wind Dir Wind Speed Gust Speed Precip Events Conditions
12:53 AM 81.0 °F 87.3 °F 75.9 °F 85% 30.11 in 10.0 mi ESE 3.5 mph - N/A   Clear
1:53 AM 80.1 °F 85.4 °F 75.9 °F 87% 30.09 in 10.0 mi SE 3.5 mph - N/A   Clear
2:53 AM 80.1 °F 85.4 °F 75.9 °F 87% 30.08 in 10.0 mi SE 4.6 mph - N/A   Clear
3:53 AM 80.1 °F 85.4 °F 75.9 °F 87% 30.06 in 10.0 mi Calm Calm - N/A   Clear
4:53 AM 79.0 °F - 73.9 °F 84% 30.06 in 10.0 mi SE 8.1 mph - N/A   Mostly Cloudy
5:53 AM 78.1 °F - 73.9 °F 87% 30.05 in 10.0 mi Calm Calm - N/A   Clear
6:53 AM 78.1 °F - 73.0 °F 84% 30.06 in 10.0 mi Calm Calm - N/A   Clear
7:53 AM 79.0 °F - 75.0 °F 88% 30.07 in 10.0 mi Calm Calm - N/A   Clear
8:53 AM 84.0 °F 92.6 °F 75.9 °F 76% 30.08 in 10.0 mi SE 4.6 mph - N/A   Clear
9:53 AM 84.9 °F 94.1 °F 75.9 °F 74% 30.09 in 10.0 mi SSE 6.9 mph - N/A   Partly Cloudy
10:53 AM 82.9 °F 90.2 °F 75.0 °F 77% 30.10 in 10.0 mi SE 8.1 mph - 0.00 in Rain Light Rain
11:53 AM 88.0 °F 96.5 °F 73.9 °F 63% 30.09 in 10.0 mi SSE 4.6 mph - 0.00 in   Partly Cloudy
12:53 PM 79.0 °F - 73.0 °F 82% 30.09 in 4.0 mi South 18.4 mph 24.2 mph 0.06 in Rain Heavy Rain
1:53 PM 88.0 °F 97.5 °F 75.0 °F 65% 30.07 in 10.0 mi South 3.5 mph - 0.38 in   Mostly Cloudy
2:53 PM 90.0 °F 97.9 °F 73.0 °F 57% 30.05 in 10.0 mi SE 9.2 mph - N/A   Mostly Cloudy
3:53 PM 90.0 °F 99.0 °F 73.9 °F 59% 30.01 in 10.0 mi SSE 8.1 mph - N/A   Clear
4:53 PM 89.1 °F 97.0 °F 73.0 °F 59% 30.01 in 10.0 mi ESE 8.1 mph - N/A   Clear
5:53 PM 88.0 °F 96.5 °F 73.9 °F 63% 30.00 in 10.0 mi SE 15.0 mph - N/A   Clear
6:53 PM 87.1 °F 96.3 °F 75.0 °F 67% 30.00 in 10.0 mi SSE 10.4 mph - N/A   Clear
7:53 PM 84.0 °F 92.6 °F 75.9 °F 76% 30.02 in 10.0 mi SE 8.1 mph - N/A   Clear
8:53 PM 82.9 °F 90.8 °F 75.9 °F 79% 30.04 in 10.0 mi SE 4.6 mph - N/A   Clear
9:53 PM 82.0 °F 89.4 °F 75.9 °F 82% 30.06 in 10.0 mi SE 4.6 mph - N/A   Clear
10:53 PM 82.0 °F 89.4 °F 75.9 °F 82% 30.07 in 10.0 mi Calm Calm - N/A   Scattered Clouds
11:53 PM 81.0 °F 87.3 °F 75.9 °F 85% 30.09 in 10.0 mi NNW 4.6 mph - N/A   Scattered Clouds